User: anonymous   Login
Location: Moscow
(55.7500°N, 37.5830°E)
Time: 12:10:18
(UTC+03:00)
Language:

FENGYUN 1C DEB - Orbit

View from above orbital plane
View from above orbital plane
View from above satellite
View from above satellite

Ground track
Ground track

The orbit data is extracted from the following two-line orbital elements,

1 30804U 99025AUN 22176.87167924  .00001402  00000-0  30911-3 0  9996
2 30804  98.9306 146.8482 0207524  38.1871  21.0571 14.46690610811286
Epoch (UTC): 25 June 2022 20:55:13
Eccentricity: 0.0207524
inclination: 98.9306°
perigee height: 589 km
apogee height: 884 km
right ascension of ascending node: 146.8482°
argument of perigee: 38.1871°
revolutions per day: 14.46690610
mean anomaly at epoch: 21.0571°
orbit number at epoch: 81128

The dashed part of the orbit path shows where the satellite is in the earth's shadow,  

DLR